SCP
0 0 0 0 0 0 0 0 0 0 0 0 0 0 0 0 0 0 0 0 0 0 0 0 0 0 0 0 0 0 0 0 0 0 0 0 0 0 0 0 0 0 0
0 0 0 0 0 0 0 0 0 0 0 0 0 0 0 0 0 0 0 0 0 0 0 0 0 0 0 0 0 0 0 0 0 0 0 0 0 0 0 0 0 0 0
0 0 0 0 0 0 0 0 0 0 0 0 0 0 0 0 0 0 0 0 0 0 0 0 0 0 0 0 0 0 0 0 0 0 0 0 0 0 0 0 0 0 0
0 0 0 0 0 0 0 0 0 0 0 0 0 0 0 0 0 0 0 0 0 0 0 0 0 0 0 0 0 0 0 0 0 0 0 0 0 0 0 0 0 0 0
0 0 0 0 0 0 0 0 0 0 0 0 -0 -0 0 0 0 0 0 0 0 0 0 0 0 0 0 0 0 0 0 0 0 0 0 0 0 0 0 0 0 0 0
0 0 0 0 0 0 0 0 0 0 0 0 -0 -0 -0 -0 0 -0 0 0 0 0 0 0 0 0 0 0 0 0 0 0 0 0 0 0 0 0 0 0 0 0 0
0 0 0 0 0 0 0 0 0 0 0 0 -0 0 -0 0 0 0 0 0 0 0 0 0 0 0 0 0 0 0 0 0 0 0 0 0 0 0 0 0 0 0 0
0 0 0 0 0 0 0 0 0 0 0 0 -0 -0 0 0 0 0 0 0 0 0 0 0 0 0 0 0 0 0 0 0 0 0 0 0 0 0 0 0 0 0 0
0 0 0 0 0 0 0 0 0 0 0 0 0 0 0 -0 0 0 0 0 0 0 0 0 0 0 0 0 0 0 0 0 0 0 0 0 0 0 0 0 0 0 0
0 0 0 0 0 0 0 0 0 0 0 0 0 -0 0 0 0 0 0 0 0 0 0 0 0 0 0 0 0 0 0 0 0 0 0 0 0 0 0 0 0 0 0
0 0 0 0 0 0 0 0 0 0 0 -0 0 0 -0 0 0 0 -0 0 0 0 0 0 0 0 0 0 0 0 0 0 0 0 0 0 0 0 0 0 0 0 0
0 0 0 0 0 0 0 0 0 0 0 0 -0 -0 0 -0 -0 0 -0 0 0 0 0 0 0 0 0 0 0 0 0 0 0 0 0 0 0 0 0 0 0 0 0
0 0 0 0 0 0 0 0 0 0 0 0 -0 -0 -0 -0 -0 0 -0 0 0 0 0 0 0 0 0 0 0 0 0 0 0 0 0 0 0 0 0 0 0 0 0
0 0 0 0 0 0 0 0 0 0 0 0 0 0 -0 0 0 -0 0 -0 0 0 0 0 0 0 0 0 0 0 0 0 0 0 0 0 0 0 0 0 0 0 0
0 0 0 0 0 0 0 0 0 0 0 0 0 0 0 0 0 0 -0 0 0 0 0 -0 0 0 0 0 0 0 0 0 0 -0 -0 0 0 0 0 0 0 0 0
0 0 -0 -0 0 0 0 0 0 0 0 0 0 0 0 0 0 0 0 0 0 0 0 0 0 0 0 0 0 0 0 -0 -0 -0 -0 0 -0 -0 -0 0 0 0 0
0 0 0 0 0 0 0 0 0 0 0 0 0 0 0 0 0 0 -0 0 0 0 0 0 0 0 0 -0 -0 -0 -0 -0 -0 -0 -0 0 0 0 0 -0 -0 0 0
0 0 0 0 0 -0 -0 0 0 0 0 0 0 0 0 0 0 0 0 0 0 0 0 0 0 0 0 -0 -0 -0 0 -0 0 -0 -0 -0 0 0 0 0 0 0 -0
0 0 0 0 0 0 0 0 0 0 0 0 -0 -0 0 0 -0 -0 -0 -0 -0 -0 -0 -0 -0 -0 0 0 0 -0 -0 -0 -0 -0 -0 -0 -0 -0 -0 -0 -0 -0 -0
0 0 0 0 0 0 0 0 0 0 -0 -0 -0 -0 -0 -0 0 0 -0 -0 -0 -0 -0 -0 -0 -0 -0 -0 -0 -0 -0 -0 -0 -0 -0 -0 -0 -0 -0 -0 -0 -0 -0
0 0 0 0 0 0 0 0 0 -0 -0 -0 -0 -0 -0 -0 -0 -0 -0 -0 -0 -0 -0 -0 -0 -0 -0 -0 -0 -0 -0 0 -0 -0 -0 -0 -0 -0 -0 -0 -0 -0 -0
0 0 0 0 0 0 0 0 0 0 0 0 0 -0 -0 -0 -0 -0 -0 -0 -0 0 0 0 0 -0 0 0 0 0 -0 -0 0 -0 -0 -0 -0 -0 -0 0 -0 -0 0
0 0 0 0 0 0 0 0 0 0 0 0 0 0 0 0 0 0 -0 -0 -0 -0 0 0 0 0 0 0 0 0 0 0 0 0 0 0 0 0 0 0 0 0 0
0 0 0 0 0 0 0 0 0 0 0 0 0 0 0 0 0 0 0 0 0 0 -0 -0 -0 0 0 0 0 0 0 0 0 0 0 0 0 0 0 0 0 0 0
0 0 0 0 0 0 0 0 0 0 0 0 0 0 0 0 0 0 0 0 0 0 0 0 0 0 0 0 0 0 0 0 0 0 0 0 0 0 0 0 0 0 0
0 0 0 0 0 0 0 0 0 0 0 0 0 0 0 0 0 0 0 0 0 0 0 0 0 0 0 0 0 0 0 0 0 0 0 0 0 0 0 0 0 0 0
Wind_Speed_500mb
25 25 25 20 28 31 33 37 41 41 39 36 33 23 27 21 22 24 26 28 28 36 43 56 70 68 56 65 54 52 53 55 50 39 35 27 26 20 18 14 17 21 18
21 23 25 25 28 31 33 39 40 38 36 32 32 27 22 21 20 21 25 29 31 31 41 58 63 70 65 62 70 58 59 57 52 46 39 24 26 24 20 20 15 16 18
17 17 23 26 26 28 33 36 37 34 31 28 27 22 17 14 13 16 22 22 27 36 39 53 61 72 71 60 78 66 66 63 61 49 28 14 12 24 20 22 20 18 21
14 17 22 24 24 26 31 33 34 30 29 25 23 19 11 10 10 17 11 17 19 33 41 50 61 73 72 67 70 61 66 66 65 57 47 26 19 21 17 24 22 19 19
14 15 20 23 24 24 27 32 31 29 23 23 20 13 9 8 11 13 13 13 9 20 28 48 66 81 74 64 66 57 72 65 64 63 58 35 21 20 15 17 30 27 25
12 14 18 22 21 23 26 28 28 27 23 24 18 12 7 3 10 11 14 12 7 12 20 42 65 68 74 63 64 57 56 65 63 61 54 51 34 30 22 14 21 29 29
11 13 17 19 18 19 23 24 22 21 21 22 20 11 5 5 7 10 10 4 5 10 17 53 59 67 81 63 59 55 52 57 55 55 51 43 36 26 22 21 20 22 26
15 13 14 15 15 15 18 20 19 18 17 18 16 13 6 3 6 9 7 2 8 12 9 26 38 50 56 55 48 44 44 43 45 43 43 39 40 42 31 27 26 19 21
15 13 13 14 13 11 15 16 18 16 15 16 13 14 10 7 4 5 7 3 7 11 7 10 36 51 46 49 48 45 47 44 46 44 39 37 32 32 31 28 27 27 26
14 13 11 12 11 11 12 14 14 14 13 16 16 15 11 7 3 1 4 1 6 12 8 7 15 34 42 42 41 34 40 43 44 44 39 37 35 34 32 31 28 20 26
15 11 10 10 7 10 10 11 11 11 13 15 14 13 12 9 5 2 6 6 6 12 18 20 20 21 24 34 35 29 29 33 35 38 35 32 36 32 33 37 32 22 26
18 12 11 8 5 5 9 11 9 11 14 16 17 18 16 14 4 3 4 6 10 13 17 17 17 19 28 26 29 26 24 29 40 45 28 37 39 25 23 15 19 17 24
27 20 14 9 4 2 5 8 9 10 13 16 17 19 16 13 9 2 9 10 9 9 21 21 18 14 21 24 22 21 19 25 20 11 13 11 14 16 13 14 16 12 12
37 32 24 16 8 4 5 7 8 10 12 16 19 19 19 18 14 4 11 15 14 12 21 23 11 3 14 24 28 24 20 19 24 27 23 19 14 15 19 16 14 13 14
37 44 38 23 14 9 10 11 9 10 13 16 19 20 21 21 20 16 13 21 22 25 24 23 20 25 24 26 22 21 22 29 24 17 18 17 15 11 13 14 14 15 11
33 35 39 33 21 14 13 15 12 10 12 15 19 22 23 24 24 22 19 21 24 23 24 28 29 24 21 21 19 19 18 18 16 15 14 16 15 16 16 13 12 13 15
18 22 39 32 25 19 16 16 15 13 12 15 18 22 25 23 25 25 23 21 22 27 23 24 24 25 19 18 17 15 15 19 17 15 15 15 14 16 15 13 13 16 18
18 25 32 32 30 26 24 22 17 15 14 15 18 19 25 24 23 25 24 23 21 24 19 18 17 14 15 13 14 15 15 14 14 12 11 11 11 11 11 14 18 21 22
18 24 28 29 29 26 26 25 21 19 16 14 16 20 22 23 23 23 21 21 20 20 18 16 13 12 12 15 14 12 13 10 7 8 7 7 9 11 13 16 17 18 20
23 29 31 32 32 31 27 25 22 19 19 17 15 16 18 21 20 21 21 19 14 16 15 16 13 13 16 16 12 11 11 9 9 6 6 8 13 14 18 21 20 17 18
26 31 31 30 28 31 28 26 24 19 19 18 18 17 17 17 16 17 19 20 20 18 14 7 2 2 7 6 5 9 11 10 12 12 13 16 17 16 16 19 20 20 22
33 33 31 31 31 32 30 27 22 24 21 20 19 20 19 18 18 17 16 16 17 17 15 14 12 9 9 9 9 11 12 12 16 18 20 19 18 20 21 21 21 21 23
33 31 30 31 32 32 31 27 24 24 20 20 19 19 20 19 21 21 22 21 20 19 19 18 17 17 15 16 17 17 18 20 22 25 26 26 27 28 29 27 26 25 26
27 28 28 31 33 34 31 26 31 26 23 20 18 18 16 15 16 17 17 20 20 22 24 24 24 25 25 25 25 26 28 28 30 31 32 33 33 31 31 31 30 32 33
21 26 27 28 29 33 31 33 34 30 28 26 25 23 20 20 19 17 16 16 18 20 21 22 27 31 30 29 34 34 34 35 38 40 41 40 39 40 38 36 34 37 38
23 23 23 26 28 33 34 36 36 32 31 31 29 25 25 24 24 23 23 20 19 20 20 22 23 25 26 29 35 36 38 41 42 44 44 43 42 42 41 42 41 40 42
Wind_Direction_500mb
316 325 332 304 286 299 311 320 323 320 318 317 317 295 279 250 241 244 242 236 239 237 235 222 216 216 219 224 215 212 198 193 193 182 185 192 201 206 220 232 248 252 255
319 321 323 309 300 306 311 320 323 323 320 322 322 316 298 264 230 233 243 245 238 239 239 225 215 214 210 216 213 206 200 199 197 189 188 200 217 211 222 244 243 252 250
309 326 331 325 316 310 311 321 325 323 320 320 325 316 316 275 256 248 239 239 246 239 245 224 216 216 212 208 208 207 206 200 195 199 183 177 205 213 226 236 237 238 240
300 321 324 325 319 307 315 323 328 327 329 331 331 327 342 280 286 295 262 236 258 260 242 215 210 212 209 210 208 205 212 202 199 205 200 207 211 187 192 209 224 233 240
303 316 309 325 319 305 318 327 333 332 336 336 332 328 349 294 298 303 260 235 237 350 211 214 206 210 204 211 198 206 198 211 209 206 199 206 212 203 196 201 222 231 234
296 310 310 326 322 316 321 332 338 332 338 339 335 331 357 297 323 297 275 257 9 356 213 190 196 207 207 205 196 203 207 215 208 210 210 212 214 209 205 218 226 236 246
292 309 307 319 327 321 324 334 341 336 339 348 336 337 10 332 318 303 291 250 178 37 314 172 194 201 208 195 196 205 212 209 204 209 216 219 225 227 231 249 250 245 251
292 304 303 320 335 331 330 337 348 348 344 352 347 346 351 337 318 319 337 319 148 132 261 126 166 172 180 188 192 194 191 196 203 207 213 221 225 233 240 252 258 256 263
291 302 313 322 331 349 343 347 349 5 349 355 1 360 1 337 326 283 343 26 102 148 120 136 145 169 172 177 187 194 198 194 199 207 209 214 217 223 234 245 255 265 264
292 298 305 323 329 354 6 356 2 9 359 359 3 5 4 353 337 239 260 10 128 131 197 168 164 143 164 181 186 187 208 208 212 207 212 211 217 231 243 258 261 269 261
283 297 299 323 337 354 14 18 17 23 13 359 2 11 10 2 1 262 216 168 161 146 148 140 172 182 170 172 180 179 184 194 205 211 208 226 227 238 254 262 258 260 264
274 292 294 311 332 10 8 34 31 27 18 10 18 48 27 18 35 155 172 160 185 171 151 153 120 140 179 163 185 179 206 210 209 204 228 239 222 241 259 243 252 261 282
264 269 285 279 286 55 31 49 54 40 27 21 41 34 38 37 14 110 159 146 155 167 164 144 163 174 168 161 176 186 190 191 169 143 185 179 226 235 231 262 270 255 239
270 254 263 260 234 164 121 90 75 57 39 30 60 50 40 44 50 116 151 155 161 149 139 123 115 110 185 196 195 208 198 214 230 213 212 213 214 235 231 215 217 224 226
261 249 253 244 213 187 153 134 112 77 57 44 70 67 56 53 60 79 123 145 147 137 138 148 161 150 132 123 136 142 167 179 173 186 216 216 209 191 220 218 229 238 223
270 245 231 226 201 184 171 149 135 108 77 64 71 86 70 71 73 70 91 123 131 131 126 133 141 134 125 125 128 135 151 164 172 175 162 177 193 196 213 224 240 244 240
272 213 205 209 199 178 174 165 147 131 110 89 81 93 92 83 84 87 83 94 121 131 124 121 123 133 143 142 141 148 169 166 159 168 177 192 205 215 224 230 239 245 246
242 206 202 198 192 184 176 174 162 143 127 120 108 103 107 103 95 94 103 103 106 115 126 132 138 141 146 156 160 162 155 156 161 174 189 202 213 221 231 238 250 249 247
230 203 199 197 195 187 180 177 173 163 148 137 129 119 118 118 116 112 102 112 120 120 123 136 148 160 162 164 169 171 169 172 199 204 192 223 246 253 254 262 264 263 259
205 199 197 197 196 193 189 184 181 173 160 149 144 140 134 134 138 137 130 132 110 106 128 142 157 154 156 159 160 175 174 180 186 205 251 276 280 271 266 265 265 261 255
196 198 201 205 200 199 197 191 189 176 172 167 162 160 158 152 152 150 149 157 161 162 173 204 210 150 172 173 176 199 205 217 231 251 257 269 270 269 275 269 266 262 256
193 196 203 200 202 203 202 202 193 192 190 183 176 175 175 175 179 180 176 177 179 179 194 202 210 227 251 253 265 274 275 268 259 260 270 271 269 272 276 266 262 258 256
197 194 199 205 206 206 206 204 188 208 206 205 197 192 191 193 191 191 199 209 210 208 208 208 212 222 232 241 254 261 264 271 278 279 279 278 277 279 276 271 262 256 252
198 200 205 212 209 208 206 194 202 211 211 213 216 217 209 207 209 214 217 216 218 226 231 231 232 238 240 242 247 249 251 256 263 267 271 272 271 273 276 278 273 265 256
198 209 215 210 208 208 206 205 212 213 214 216 218 221 223 227 224 221 225 226 229 238 242 244 244 247 251 252 253 258 261 261 260 259 260 264 265 265 266 268 268 260 258
220 216 218 212 206 210 209 212 219 222 223 226 228 230 233 236 239 238 237 236 241 252 252 254 257 258 261 262 266 266 264 264 262 263 264 264 265 264 264 264 266 260 256
Wind_Speed_850mb
25 25 25 20 28 31 33 37 41 41 39 36 33 23 27 21 22 24 26 28 28 36 43 56 70 68 56 65 54 52 53 55 50 39 35 27 26 20 18 14 17 21 18
21 23 25 25 28 31 33 39 40 38 36 32 32 27 22 21 20 21 25 29 31 31 41 58 63 70 65 62 70 58 59 57 52 46 39 24 26 24 20 20 15 16 18
17 17 23 26 26 28 33 36 37 34 31 28 27 22 17 14 13 16 22 22 27 36 39 53 61 72 71 60 78 66 66 63 61 49 28 14 12 24 20 22 20 18 21
14 17 22 24 24 26 31 33 34 30 29 25 23 19 11 10 10 17 11 17 19 33 41 50 61 73 72 67 70 61 66 66 65 57 47 26 19 21 17 24 22 19 19
14 15 20 23 24 24 27 32 31 29 23 23 20 13 9 8 11 13 13 13 9 20 28 48 66 81 74 64 66 57 72 65 64 63 58 35 21 20 15 17 30 27 25
12 14 18 22 21 23 26 28 28 27 23 24 18 12 7 3 10 11 14 12 7 12 20 42 65 68 74 63 64 57 56 65 63 61 54 51 34 30 22 14 21 29 29
11 13 17 19 18 19 23 24 22 21 21 22 20 11 5 5 7 10 10 4 5 10 17 53 59 67 81 63 59 55 52 57 55 55 51 43 36 26 22 21 20 22 26
15 13 14 15 15 15 18 20 19 18 17 18 16 13 6 3 6 9 7 2 8 12 9 26 38 50 56 55 48 44 44 43 45 43 43 39 40 42 31 27 26 19 21
15 13 13 14 13 11 15 16 18 16 15 16 13 14 10 7 4 5 7 3 7 11 7 10 36 51 46 49 48 45 47 44 46 44 39 37 32 32 31 28 27 27 26
14 13 11 12 11 11 12 14 14 14 13 16 16 15 11 7 3 1 4 1 6 12 8 7 15 34 42 42 41 34 40 43 44 44 39 37 35 34 32 31 28 20 26
15 11 10 10 7 10 10 11 11 11 13 15 14 13 12 9 5 2 6 6 6 12 18 20 20 21 24 34 35 29 29 33 35 38 35 32 36 32 33 37 32 22 26
18 12 11 8 5 5 9 11 9 11 14 16 17 18 16 14 4 3 4 6 10 13 17 17 17 19 28 26 29 26 24 29 40 45 28 37 39 25 23 15 19 17 24
27 20 14 9 4 2 5 8 9 10 13 16 17 19 16 13 9 2 9 10 9 9 21 21 18 14 21 24 22 21 19 25 20 11 13 11 14 16 13 14 16 12 12
37 32 24 16 8 4 5 7 8 10 12 16 19 19 19 18 14 4 11 15 14 12 21 23 11 3 14 24 28 24 20 19 24 27 23 19 14 15 19 16 14 13 14
37 44 38 23 14 9 10 11 9 10 13 16 19 20 21 21 20 16 13 21 22 25 24 23 20 25 24 26 22 21 22 29 24 17 18 17 15 11 13 14 14 15 11
33 35 39 33 21 14 13 15 12 10 12 15 19 22 23 24 24 22 19 21 24 23 24 28 29 24 21 21 19 19 18 18 16 15 14 16 15 16 16 13 12 13 15
18 22 39 32 25 19 16 16 15 13 12 15 18 22 25 23 25 25 23 21 22 27 23 24 24 25 19 18 17 15 15 19 17 15 15 15 14 16 15 13 13 16 18
18 25 32 32 30 26 24 22 17 15 14 15 18 19 25 24 23 25 24 23 21 24 19 18 17 14 15 13 14 15 15 14 14 12 11 11 11 11 11 14 18 21 22
18 24 28 29 29 26 26 25 21 19 16 14 16 20 22 23 23 23 21 21 20 20 18 16 13 12 12 15 14 12 13 10 7 8 7 7 9 11 13 16 17 18 20
23 29 31 32 32 31 27 25 22 19 19 17 15 16 18 21 20 21 21 19 14 16 15 16 13 13 16 16 12 11 11 9 9 6 6 8 13 14 18 21 20 17 18
26 31 31 30 28 31 28 26 24 19 19 18 18 17 17 17 16 17 19 20 20 18 14 7 2 2 7 6 5 9 11 10 12 12 13 16 17 16 16 19 20 20 22
33 33 31 31 31 32 30 27 22 24 21 20 19 20 19 18 18 17 16 16 17 17 15 14 12 9 9 9 9 11 12 12 16 18 20 19 18 20 21 21 21 21 23
33 31 30 31 32 32 31 27 24 24 20 20 19 19 20 19 21 21 22 21 20 19 19 18 17 17 15 16 17 17 18 20 22 25 26 26 27 28 29 27 26 25 26
27 28 28 31 33 34 31 26 31 26 23 20 18 18 16 15 16 17 17 20 20 22 24 24 24 25 25 25 25 26 28 28 30 31 32 33 33 31 31 31 30 32 33
21 26 27 28 29 33 31 33 34 30 28 26 25 23 20 20 19 17 16 16 18 20 21 22 27 31 30 29 34 34 34 35 38 40 41 40 39 40 38 36 34 37 38
23 23 23 26 28 33 34 36 36 32 31 31 29 25 25 24 24 23 23 20 19 20 20 22 23 25 26 29 35 36 38 41 42 44 44 43 42 42 41 42 41 40 42
Wind_Direction_850mb
316 325 332 304 286 299 311 320 323 320 318 317 317 295 279 250 241 244 242 236 239 237 235 222 216 216 219 224 215 212 198 193 193 182 185 192 201 206 220 232 248 252 255
319 321 323 309 300 306 311 320 323 323 320 322 322 316 298 264 230 233 243 245 238 239 239 225 215 214 210 216 213 206 200 199 197 189 188 200 217 211 222 244 243 252 250
309 326 331 325 316 310 311 321 325 323 320 320 325 316 316 275 256 248 239 239 246 239 245 224 216 216 212 208 208 207 206 200 195 199 183 177 205 213 226 236 237 238 240
300 321 324 325 319 307 315 323 328 327 329 331 331 327 342 280 286 295 262 236 258 260 242 215 210 212 209 210 208 205 212 202 199 205 200 207 211 187 192 209 224 233 240
303 316 309 325 319 305 318 327 333 332 336 336 332 328 349 294 298 303 260 235 237 350 211 214 206 210 204 211 198 206 198 211 209 206 199 206 212 203 196 201 222 231 234
296 310 310 326 322 316 321 332 338 332 338 339 335 331 357 297 323 297 275 257 9 356 213 190 196 207 207 205 196 203 207 215 208 210 210 212 214 209 205 218 226 236 246
292 309 307 319 327 321 324 334 341 336 339 348 336 337 10 332 318 303 291 250 178 37 314 172 194 201 208 195 196 205 212 209 204 209 216 219 225 227 231 249 250 245 251
292 304 303 320 335 331 330 337 348 348 344 352 347 346 351 337 318 319 337 319 148 132 261 126 166 172 180 188 192 194 191 196 203 207 213 221 225 233 240 252 258 256 263
291 302 313 322 331 349 343 347 349 5 349 355 1 360 1 337 326 283 343 26 102 148 120 136 145 169 172 177 187 194 198 194 199 207 209 214 217 223 234 245 255 265 264
292 298 305 323 329 354 6 356 2 9 359 359 3 5 4 353 337 239 260 10 128 131 197 168 164 143 164 181 186 187 208 208 212 207 212 211 217 231 243 258 261 269 261
283 297 299 323 337 354 14 18 17 23 13 359 2 11 10 2 1 262 216 168 161 146 148 140 172 182 170 172 180 179 184 194 205 211 208 226 227 238 254 262 258 260 264
274 292 294 311 332 10 8 34 31 27 18 10 18 48 27 18 35 155 172 160 185 171 151 153 120 140 179 163 185 179 206 210 209 204 228 239 222 241 259 243 252 261 282
264 269 285 279 286 55 31 49 54 40 27 21 41 34 38 37 14 110 159 146 155 167 164 144 163 174 168 161 176 186 190 191 169 143 185 179 226 235 231 262 270 255 239
270 254 263 260 234 164 121 90 75 57 39 30 60 50 40 44 50 116 151 155 161 149 139 123 115 110 185 196 195 208 198 214 230 213 212 213 214 235 231 215 217 224 226
261 249 253 244 213 187 153 134 112 77 57 44 70 67 56 53 60 79 123 145 147 137 138 148 161 150 132 123 136 142 167 179 173 186 216 216 209 191 220 218 229 238 223
270 245 231 226 201 184 171 149 135 108 77 64 71 86 70 71 73 70 91 123 131 131 126 133 141 134 125 125 128 135 151 164 172 175 162 177 193 196 213 224 240 244 240
272 213 205 209 199 178 174 165 147 131 110 89 81 93 92 83 84 87 83 94 121 131 124 121 123 133 143 142 141 148 169 166 159 168 177 192 205 215 224 230 239 245 246
242 206 202 198 192 184 176 174 162 143 127 120 108 103 107 103 95 94 103 103 106 115 126 132 138 141 146 156 160 162 155 156 161 174 189 202 213 221 231 238 250 249 247
230 203 199 197 195 187 180 177 173 163 148 137 129 119 118 118 116 112 102 112 120 120 123 136 148 160 162 164 169 171 169 172 199 204 192 223 246 253 254 262 264 263 259
205 199 197 197 196 193 189 184 181 173 160 149 144 140 134 134 138 137 130 132 110 106 128 142 157 154 156 159 160 175 174 180 186 205 251 276 280 271 266 265 265 261 255
196 198 201 205 200 199 197 191 189 176 172 167 162 160 158 152 152 150 149 157 161 162 173 204 210 150 172 173 176 199 205 217 231 251 257 269 270 269 275 269 266 262 256
193 196 203 200 202 203 202 202 193 192 190 183 176 175 175 175 179 180 176 177 179 179 194 202 210 227 251 253 265 274 275 268 259 260 270 271 269 272 276 266 262 258 256
197 194 199 205 206 206 206 204 188 208 206 205 197 192 191 193 191 191 199 209 210 208 208 208 212 222 232 241 254 261 264 271 278 279 279 278 277 279 276 271 262 256 252
198 200 205 212 209 208 206 194 202 211 211 213 216 217 209 207 209 214 217 216 218 226 231 231 232 238 240 242 247 249 251 256 263 267 271 272 271 273 276 278 273 265 256
198 209 215 210 208 208 206 205 212 213 214 216 218 221 223 227 224 221 225 226 229 238 242 244 244 247 251 252 253 258 261 261 260 259 260 264 265 265 266 268 268 260 258
220 216 218 212 206 210 209 212 219 222 223 226 228 230 233 236 239 238 237 236 241 252 252 254 257 258 261 262 266 266 264 264 262 263 264 264 265 264 264 264 266 260 256